AirNav   Everest Fuels
 
 479 users online  

48MO Lions Emergency Evac Heliport
California, Missouri, USA

GOING TO CALIFORNIA?


FAA INFORMATION EFFECTIVE 07 OCTOBER 2021

Location

FAA Identifier: 48MO
Lat/Long: 38-37-38.4600N 092-32-25.9400W
38-37.641000N 092-32.432333W
38.6273500,-92.5405389
(estimated)
Elevation: 860 ft. / 262 m (estimated)
Variation: 04E (1985)
From city: 1 mile E of CALIFORNIA, MO
Time zone: UTC -5 (UTC -6 during Standard Time)
Zip code: 65018

Heliport Operations

Heliport use: Private use, MEDICAL USE.
Activation date: 05/1991
Control tower: no
ARTCC: KANSAS CITY CENTER
FSS: COLUMBIA FLIGHT SERVICE STATION
Attendance: UNATNDD
Wind indicator: lighted
Segmented circle: no
Lights: ACTVT PERIMETER LGTS - 123.05.

Heliport Communications

WX ASOS at JEF (18 nm E): 133.625 (573-635-9266)
WX ASOS at COU (19 nm NE): 128.45 (573-499-1400)

Nearby radio navigation aids

VOR radial/distance  VOR name  Freq  Var
COUr234/18.7COLUMBIA VOR/DME110.2000E
HLVr207/35.0HALLSVILLE VORTAC114.2006E
SHYr005/35.3SUNSHINE VOR/DME108.4000E

Heliport Services

Runway Information

Helipad H1

Dimensions: 30 x 30 ft. / 9 x 9 m
Surface: concrete
Runway edge lights: PERI
Latitude: 38-37.641000N
Longitude: 092-32.432333W
Elevation: 860.0 ft.
Traffic pattern: leftleft

Heliport Ownership and Management from official FAA records

Ownership: Privately-owned
Owner: CALIFORNIA LIONS CLUB
CITY OF CALIFORNIA
CALIFORNIA, MO 65018
Phone (573) 796-3151
ASK FOR BECKY LAWSON
Manager: CITY CLERK
500 S OAK STREET
CALIFORNIA, MO 65018
Phone (573) 796-2500

Additional Remarks

A53-H1 PLINES SOUTH OF HELIPAD MKD WITH DAY GLOW BALLS; POWER POLE 30 FT ENE 100 FT MKD WITH RED LGTS; POWER POLL 30 FT WNE 120 FT MKD WITH RED LGTS.
FOR CD CTC MIZZOU APCH AT 417-868-5620/5619.

Instrument Procedures

There are no published instrument procedures at 48MO.

Some nearby airports with instrument procedures:

H79 - Eldon Model Airpark (16 nm S)
KJEF - Jefferson City Memorial Airport (18 nm E)
KCOU - Columbia Regional Airport (19 nm NE)
KVER - Jesse Viertel Memorial Airport (20 nm N)
KFTT - Elton Hensley Memorial Airport (28 nm NE)
 
Loc | Ops | Rwys | IFR | FBO | Links
Com | Nav | Svcs | Stats | Notes
Area around 48MO (Lions Emergency Evac Heliport)
 
Road maps at: MapQuest Bing Google
 
Aerial photo
No photo
 
Sectional chart

 
Airport distance calculator
Flying to Lions Emergency Evac Heliport? Find the distance to fly.

From to 48MO

Sunrise and sunset
Times for 25-Oct-2021
 Local
(UTC-5)
 Zulu
(UTC)
Morning civil twilight07:0312:03
Sunrise07:3112:31
Sunset18:1823:18
Evening civil twilight18:4523:45

Current date and time
Zulu (UTC)  25-Oct-2021 10:33:35
Local (UTC-5)  25-Oct-2021 05:33:35
 
METAR
KJEF 
18nm E 
250953Z AUTO 30012G21KT 10SM OVC021 11/06 A2987 RMK AO2 SLP102 T01110056 $
KCOU 
19nm NE 
250954Z AUTO 31018G27KT 10SM OVC018 10/06 A2986 RMK AO2 PK WND 31028/0914 SLP108 T01000056
KVER 
20nm N 
251015Z AUTO 31007G22KT 10SM OVC019 10/04 A2990 RMK AO2 T00970040
KDMO 
30nm W 
250953Z AUTO 32012G25KT 10SM OVC018 09/06 A2991 RMK AO2 SLP124 T00940056 $
TAF
KJEF 
18nm E 
250520Z 2506/2606 28017G28KT P6SM OVC025 FM250800 28015G27KT P6SM OVC015 FM251700 32011G20KT P6SM BKN020 FM251900 33010KT P6SM BKN040 FM260000 05005KT P6SM FEW250
KCOU 
19nm NE 
250547Z 2506/2606 29016G29KT P6SM OVC015 FM251700 33012G21KT P6SM BKN020 FM251900 34011KT P6SM BKN040 FM260000 05005KT P6SM FEW250
NOTAMs
Click for the latest NOTAMs
NOTAMs are issued by the DoD/FAA and will open in a separate window not controlled by AirNav.

 

 
 

Would you like to see your business listed on this page?

 If your business provides an interesting product or service to pilots, flight crews, aircraft, or users of the Lions Emergency Evac Heliport, you should consider listing it here.  To start the listing process, click on the button below
 
Add a business
 

Other Pages about Lions Emergency Evac Heliport

Update a link
 
Copyright © AirNav, LLC. All rights reserved. Privacy Policy  Contact